Theta_e
320 318 321 332 331 334 338 351 353 355 353 350 345 346 348 349 354 364 353 351 343 338 337 336 336 342 345 343 343 339 332 332 328 327 327 331 335 332 329 328 330 333 335 337 339 339 339 337 333
320 321 327 323 329 334 335 347 354 354 350 347 346 345 343 344 343 352 351 348 339 337 336 335 337 342 345 343 344 341 333 334 331 328 328 333 337 334 334 334 334 334 334 334 335 337 337 336 337
322 324 321 324 327 332 334 344 350 349 348 347 346 343 343 345 353 352 348 342 339 336 335 334 336 340 344 344 345 342 335 336 334 331 329 331 336 337 338 339 339 339 338 337 338 339 340 340 339
324 319 318 325 331 327 332 339 348 349 345 343 343 355 353 348 355 353 344 340 338 336 335 334 335 338 342 344 345 343 336 336 337 334 332 331 335 337 339 341 344 343 342 343 343 342 341 340 335
321 316 321 325 328 327 329 331 343 345 345 351 352 362 360 356 356 351 345 340 338 336 335 334 334 336 340 342 344 342 338 336 339 338 336 335 335 336 339 342 343 341 340 339 336 336 336 334 333
319 320 326 328 331 332 331 330 328 345 350 345 348 361 358 356 355 352 344 339 337 336 335 334 333 332 334 337 339 339 339 338 341 342 340 338 337 336 337 339 341 339 339 337 337 337 336 334 333
321 323 329 330 336 334 333 331 326 327 357 356 356 359 356 357 355 353 349 337 338 337 335 335 334 332 332 332 333 334 337 338 341 343 343 342 341 339 336 334 335 336 337 336 336 334 332 331 332
320 322 330 333 336 335 333 333 327 326 326 349 350 356 357 356 356 354 351 350 348 337 336 336 334 333 332 331 330 330 332 337 341 344 344 341 340 339 336 333 332 333 334 333 332 333 334 335 336
323 326 329 334 335 333 331 332 331 326 324 328 333 343 342 352 356 354 355 352 347 340 337 336 335 334 333 332 331 330 329 330 335 340 340 339 337 335 333 328 328 330 331 332 332 333 335 336 339
323 326 332 330 331 332 332 332 329 325 324 321 327 332 332 344 349 355 356 352 349 345 339 337 336 335 334 334 332 331 332 332 333 333 332 331 331 331 331 328 330 337 339 339 336 337 342 343 347
324 325 329 329 330 330 334 334 329 323 325 322 322 322 321 320 320 334 352 354 351 347 344 339 338 337 336 336 334 333 333 332 332 331 329 328 331 340 340 340 340 341 341 341 346 349 348 348 345
325 323 328 327 327 331 334 333 327 322 323 322 322 321 321 320 319 319 337 338 352 350 344 343 341 340 344 345 337 335 335 333 332 333 334 331 339 341 343 344 344 344 347 348 348 339 339 339 341
323 323 323 325 325 327 330 330 330 322 320 321 321 321 321 321 320 321 345 349 353 352 352 351 351 350 349 350 347 341 342 339 343 341 344 345 342 349 347 346 347 347 347 345 340 339 340 340 332
322 322 322 323 324 321 322 321 321 327 321 321 320 319 320 321 321 322 337 349 353 353 353 354 356 355 353 353 352 351 350 349 348 346 346 348 348 347 347 346 344 345 344 343 339 334 331 328 326
321 321 319 321 321 320 320 321 320 320 320 320 320 319 320 321 321 320 325 346 353 354 354 354 355 357 357 357 357 356 352 351 349 348 347 348 348 347 345 343 343 342 334 329 330 328 327 326 322
319 318 319 318 320 320 320 321 320 319 319 318 319 320 320 323 325 327 329 330 334 344 350 349 348 350 354 356 356 354 353 353 353 350 347 346 340 344 339 345 335 328 328 328 326 326 325 324 321
315 319 319 319 319 320 318 319 319 320 319 318 318 319 327 328 327 328 332 333 332 332 340 348 349 348 352 356 354 353 355 353 350 347 346 341 344 342 338 342 328 328 327 326 326 325 323 324 324
318 319 320 320 319 318 317 317 318 321 319 318 319 325 328 328 327 335 340 342 340 341 344 340 347 351 348 345 347 353 352 351 349 345 344 341 338 338 335 329 328 327 325 325 323 322 322 321 321
316 318 318 319 319 317 317 319 321 320 320 319 319 328 329 330 330 336 339 340 341 343 346 349 352 347 347 349 347 351 348 349 348 345 345 344 343 333 331 328 327 326 325 321 322 319 317 318 321
316 316 317 319 320 319 320 321 320 319 319 318 320 329 331 330 333 336 338 339 340 339 341 339 337 341 341 338 340 343 344 344 344 341 334 333 330 329 329 328 325 322 320 318 318 320 319 320 323
319 320 322 322 320 318 317 316 317 318 321 322 325 329 332 333 334 334 335 337 336 333 332 331 330 330 335 335 336 339 337 334 332 331 331 331 330 329 327 323 321 322 320 319 318 320 322 322 318
318 318 318 319 318 320 316 315 315 316 321 327 330 331 330 331 331 331 332 334 333 332 331 329 327 327 326 330 329 332 330 328 332 332 329 328 327 326 324 322 322 321 320 317 319 319 318 319 320
320 319 317 318 316 315 315 314 317 319 322 321 323 325 324 328 328 326 328 331 331 330 328 326 326 326 325 323 323 327 327 326 326 325 325 325 326 324 323 323 321 319 318 318 318 317 318 318 319
319 319 314 314 313 316 316 316 325 324 325 325 323 322 321 321 319 319 319 321 320 327 318 319 318 320 325 325 325 323 321 322 322 322 324 324 323 322 321 319 319 319 318 317 317 317 317 317 318
313 311 315 316 318 319 317 324 322 324 324 323 323 321 320 319 318 318 316 318 318 318 317 317 316 316 317 317 324 325 324 324 323 322 322 322 323 322 321 320 319 319 318 317 316 317 316 316 317
315 315 318 325 320 316 320 324 324 323 320 321 321 319 317 317 316 314 313 312 313 314 313 313 314 315 318 317 316 319 322 324 324 323 323 323 322 322 321 320 320 319 318 317 316 316 316 316 317
314 316 314 314 312 317 321 321 318 319 316 315 313 312 311 310 310 310 310 310 310 311 312 311 311 311 312 315 316 316 317 319 323 323 323 323 321 321 321 320 319 318 318 317 315 315 315 316 316
313 314 316 313 320 320 320 319 318 316 314 314 313 312 311 309 309 308 308 309 310 310 310 310 309 309 309 310 312 314 315 316 316 318 321 323 321 321 321 320 319 318 317 316 316 315 314 313 313
317 316 314 312 316 319 321 318 314 315 314 313 312 310 309 308 307 307 308 308 308 308 307 307 307 307 307 308 311 311 312 314 315 316 317 318 319 318 318 318 317 316 315 316 315 314 312 311 311
318 318 315 317 319 318 316 316 314 313 312 311 310 309 308 307 306 306 306 305 305 304 304 304 304 304 304 304 304 304 305 307 310 313 312 313 314 315 315 315 314 314 315 315 312 311 310 310 311
Wind_Speed
19 14 9 3 3 3 1 2 15 11 1 5 18 6 4 1 3 2 2 24 29 27 22 19 19 19 19 18 16 15 16 16 17 18 19 20 19 19 18 18 17 16 14 12 10 9 8 7 7
20 9 2 1 4 3 3 5 19 19 17 15 22 11 5 3 2 10 12 20 29 27 23 20 19 20 19 18 16 15 16 15 16 17 18 18 18 18 17 16 15 13 11 9 7 5 4 3 4
19 2 3 3 3 2 2 8 18 14 3 12 11 8 5 5 10 12 18 32 28 25 22 20 18 19 19 18 16 15 15 15 15 15 16 17 16 16 15 14 13 11 10 8 7 5 3 2 1
6 4 4 4 4 6 5 11 13 17 12 15 3 5 3 10 10 18 34 33 29 24 21 19 18 17 17 17 16 15 14 14 14 14 14 14 15 15 14 13 12 11 9 7 6 4 3 2 2
3 3 4 4 5 5 9 17 19 18 13 18 27 6 4 4 23 35 33 31 28 25 22 20 18 18 17 16 15 14 13 13 13 13 13 12 12 12 12 11 9 7 6 5 4 2 2 2 2
4 3 4 3 5 6 2 18 7 12 22 14 10 9 4 27 34 31 31 31 28 30 27 25 22 20 18 17 16 14 14 13 12 11 11 10 10 10 10 9 8 7 5 4 2 1 2 3 4
4 4 2 1 6 7 5 11 16 10 18 16 22 5 7 18 32 36 32 34 32 32 31 28 25 22 20 18 17 16 15 14 12 11 11 9 9 9 9 10 10 9 7 5 3 3 4 4 5
4 4 2 1 4 6 7 8 3 6 4 8 7 5 8 17 32 35 33 35 32 33 30 28 26 24 21 19 17 17 16 15 13 12 10 9 9 10 10 10 10 9 7 5 4 4 5 6 8
2 3 2 3 1 7 9 8 5 6 14 3 2 6 3 16 25 24 23 20 25 30 32 29 27 24 22 20 19 17 16 15 14 13 11 10 10 10 10 9 9 8 6 5 5 5 6 7 9
4 4 8 7 3 6 1 6 6 7 10 9 6 6 11 20 25 18 13 15 19 25 32 30 27 25 23 21 20 19 19 17 16 14 11 11 11 10 9 9 8 7 6 6 5 5 7 7 7
3 5 4 10 5 8 4 5 4 4 6 2 1 4 4 8 16 18 26 30 31 28 26 28 26 25 23 21 20 19 17 15 15 13 12 11 12 10 9 10 10 9 8 6 3 2 4 5 8
3 7 5 8 12 5 6 4 7 3 4 5 1 2 3 8 7 9 10 17 28 28 28 27 25 24 23 19 20 18 16 16 15 13 12 13 12 10 11 12 13 12 8 8 5 1 2 5 9
6 6 7 11 7 8 7 9 15 7 6 6 3 4 2 4 9 11 15 21 30 30 28 27 22 22 21 18 18 17 17 17 13 13 13 11 9 9 10 14 9 9 6 4 1 3 2 5 6
4 6 11 13 14 5 7 6 7 23 2 7 9 8 5 2 5 5 17 24 27 29 26 22 20 21 22 20 25 21 19 17 15 14 15 13 13 13 12 8 6 6 6 3 1 2 4 6 11
3 4 5 5 7 7 7 2 7 10 4 11 8 7 8 1 9 6 10 28 33 30 29 28 25 24 24 19 18 21 20 16 15 14 16 16 14 17 12 9 3 6 8 7 6 4 4 8 13
5 4 1 4 3 5 7 12 7 9 6 9 9 7 5 11 12 21 21 17 18 19 22 23 19 17 17 16 16 16 15 14 18 18 15 18 15 13 15 9 7 10 11 8 3 5 8 12 16
6 3 5 7 6 6 8 9 9 6 7 8 8 6 13 12 15 23 30 32 26 22 16 8 11 11 10 10 8 6 6 6 7 8 9 10 13 12 11 7 12 9 7 3 5 6 10 14 17
5 4 4 5 8 5 8 7 6 2 5 8 7 10 11 13 8 21 30 31 26 26 23 15 6 5 6 6 5 5 4 4 7 10 8 10 14 11 11 11 11 7 4 3 6 9 11 14 17
5 6 5 13 7 5 1 4 4 3 5 7 5 12 11 13 7 21 27 26 28 29 29 25 20 17 14 10 4 2 3 10 10 9 13 12 15 12 15 11 7 4 4 7 8 10 13 14 18
9 11 9 7 7 7 5 2 3 6 4 6 12 11 13 8 10 15 24 25 26 25 25 25 25 19 17 17 11 5 7 9 12 13 16 16 16 12 9 6 4 4 6 8 10 12 13 13 18
2 5 1 4 5 7 5 8 7 5 0 6 15 11 10 13 12 9 16 24 24 26 27 26 25 25 20 17 17 14 15 16 14 12 7 6 5 4 2 1 3 7 8 10 11 12 13 12 20
4 3 2 4 5 1 4 4 7 6 5 13 13 12 9 8 7 7 13 20 22 20 21 22 21 20 20 18 24 26 24 19 8 2 6 7 4 3 2 1 2 4 6 9 10 13 14 14 17
4 4 1 1 4 3 1 4 12 3 8 10 9 9 9 7 9 11 16 23 19 19 21 19 19 18 15 14 13 13 16 15 15 12 10 10 1 4 5 6 5 4 5 8 12 15 16 15 16
2 2 6 5 4 4 7 5 11 7 8 17 17 16 15 16 16 18 23 26 24 20 23 21 21 19 14 11 8 9 6 7 5 3 4 6 8 7 5 4 2 1 7 9 12 13 15 17 18
11 7 4 4 5 4 2 11 0 7 17 15 15 13 11 9 9 8 10 16 17 15 13 15 17 14 15 14 9 5 3 2 3 3 6 10 12 10 7 4 4 5 6 11 12 14 15 16 17
3 6 5 2 1 4 6 4 1 4 9 10 9 9 13 15 15 16 23 23 23 27 26 29 31 28 22 21 17 12 7 4 3 6 7 9 10 10 9 7 8 10 12 11 12 15 16 18 18
4 3 2 5 4 4 2 3 12 4 16 20 18 18 15 14 14 14 21 23 25 26 24 24 24 25 24 22 21 17 14 12 10 11 10 10 9 8 8 9 9 10 11 13 11 11 14 16 19
5 2 6 4 2 2 3 5 3 5 13 16 15 13 12 11 11 9 14 20 23 23 24 23 24 22 22 21 20 20 18 15 14 14 12 12 12 11 10 8 7 8 12 13 10 13 15 17 21
5 3 6 4 4 4 2 3 8 11 11 12 11 10 8 7 7 7 13 18 19 18 19 20 20 21 20 18 17 17 17 18 17 12 13 14 12 11 9 8 9 10 10 12 12 12 14 16 18
3 5 4 5 2 2 4 0 6 9 11 11 10 9 8 6 7 9 14 20 21 21 22 22 20 19 20 20 22 24 25 23 20 19 18 15 16 16 14 14 13 13 11 8 6 9 11 16 18
Wind_Direction
327 329 306 129 35 66 104 270 105 316 302 207 174 201 217 203 159 192 92 159 163 153 152 149 144 147 147 147 141 134 131 127 129 129 129 128 126 126 125 126 130 134 134 130 125 118 104 97 103
329 342 114 63 70 12 129 204 147 183 214 152 186 217 261 210 88 120 110 156 154 151 150 147 146 148 150 150 146 141 139 133 133 132 132 133 130 129 128 128 129 132 133 133 133 134 126 112 105
337 36 91 97 122 48 287 186 155 196 226 171 188 196 186 171 134 145 158 156 154 150 149 145 148 151 153 154 152 148 146 141 138 137 138 141 140 137 135 133 132 133 135 137 139 141 139 135 135
335 2 26 71 309 254 271 165 168 181 185 229 210 179 164 165 143 154 155 156 153 151 150 145 149 152 155 155 155 153 152 149 146 143 145 148 150 150 149 148 145 143 143 145 150 159 173 206 264
359 59 47 18 293 286 11 16 149 159 160 40 335 108 84 82 136 142 155 156 153 155 154 152 154 154 157 157 155 155 157 157 154 150 151 155 157 160 161 161 160 156 152 150 149 164 197 244 275
359 91 44 348 296 289 16 10 44 126 93 102 290 105 134 142 141 153 156 159 163 163 165 164 161 158 160 162 158 160 162 163 161 158 158 162 163 166 174 178 179 177 172 171 179 216 264 282 292
119 81 203 266 301 321 22 360 31 7 148 161 182 198 130 154 160 161 163 164 168 170 169 169 165 163 163 162 161 162 166 169 171 172 170 171 174 176 184 189 190 192 194 204 233 258 271 282 285
109 98 117 343 346 298 351 12 23 31 259 182 149 162 166 184 169 167 167 167 168 171 173 171 168 168 166 164 165 164 167 172 176 178 177 180 185 189 192 196 196 198 208 229 256 279 286 293 297
73 59 181 176 22 271 329 14 346 337 33 325 209 116 120 165 163 157 154 157 168 175 177 176 174 173 171 170 169 171 170 171 175 180 184 189 197 199 200 199 196 200 216 240 264 280 291 300 309
110 135 222 185 203 275 257 5 334 33 25 353 9 33 79 138 152 152 151 169 178 180 181 180 179 178 176 176 177 178 176 175 179 181 185 192 196 201 208 203 197 204 222 238 252 278 291 303 327
216 212 190 332 249 260 288 310 35 50 35 22 41 17 26 95 107 149 182 192 187 184 178 183 185 184 184 185 185 182 183 178 182 186 185 190 192 197 213 216 216 224 229 227 217 287 304 310 329
222 261 199 203 257 189 265 315 303 94 235 162 114 310 45 8 8 86 141 187 174 176 179 182 188 187 185 192 193 188 186 187 188 188 184 188 192 213 241 238 232 228 238 228 214 344 42 354 335
170 254 250 239 283 204 167 188 269 272 220 184 119 80 70 9 346 31 136 149 161 172 182 181 181 189 191 198 197 198 194 188 183 183 184 189 197 231 225 218 204 210 225 217 195 282 351 353 4
228 254 252 242 220 206 160 197 134 250 198 217 150 155 155 10 27 29 135 142 159 171 177 181 182 185 193 198 206 200 197 189 184 190 196 193 201 193 184 191 217 230 203 155 216 69 59 12 348
218 269 283 203 213 214 151 213 193 230 267 306 156 155 121 28 26 34 144 145 156 167 167 168 169 165 170 172 180 199 198 190 197 197 208 212 214 202 193 172 136 156 142 153 113 82 9 337 335
3 40 324 283 227 255 127 253 193 207 231 265 171 166 117 61 57 76 77 124 128 147 165 166 171 167 161 156 150 152 167 181 185 200 216 224 229 213 180 188 161 140 137 136 92 1 337 335 340
5 244 283 316 232 228 165 240 237 238 169 180 181 148 103 95 75 74 73 74 74 79 86 137 179 175 157 147 147 146 147 175 165 173 191 197 202 195 191 190 159 143 142 96 29 352 343 341 341
255 291 301 270 290 250 193 207 168 158 142 190 170 104 102 96 90 90 84 74 67 63 62 67 107 94 82 79 104 124 135 156 182 191 202 172 164 175 166 157 144 143 119 55 360 357 350 345 339
274 282 285 293 283 67 186 127 197 230 185 165 124 124 115 102 112 86 85 83 78 70 65 69 78 60 59 55 48 75 130 179 182 195 183 187 168 168 164 150 140 98 49 35 12 352 347 343 348
256 261 266 246 354 73 8 319 272 294 249 192 139 132 128 116 97 96 90 82 74 71 71 65 60 53 51 55 57 88 122 151 153 147 145 150 158 155 159 169 135 68 44 25 16 12 357 338 359
156 115 40 50 335 15 44 336 329 307 188 95 135 124 125 133 124 115 103 96 88 82 80 79 75 70 68 73 74 95 111 104 113 129 142 160 163 151 188 127 66 49 35 17 5 7 8 346 338
65 307 67 83 73 241 79 267 294 313 102 107 123 132 146 111 103 122 111 98 88 88 84 81 75 72 71 72 76 83 79 63 48 65 105 115 115 98 65 88 81 70 25 4 10 356 351 351 340
202 269 289 288 80 62 360 74 324 13 88 44 36 41 46 59 60 54 56 67 69 66 61 60 57 55 62 59 72 96 100 96 92 82 72 58 58 93 136 121 82 45 16 16 358 353 348 346 333
339 18 29 41 83 32 306 132 4 4 71 76 67 64 67 79 70 72 77 87 84 88 67 59 53 46 38 42 51 49 89 109 107 131 120 114 127 140 161 181 189 358 352 350 352 349 347 345 334
39 46 1 22 27 213 133 54 17 87 91 92 93 85 89 93 91 92 83 75 71 68 60 42 32 40 32 24 39 41 42 49 5 266 259 234 208 200 204 221 272 310 322 333 343 339 341 341 334
9 120 135 124 113 267 14 92 155 89 90 80 62 65 47 37 39 44 46 45 46 51 51 42 40 37 27 14 9 5 345 301 259 241 241 243 247 240 241 263 291 307 318 330 343 338 337 338 332
322 41 157 110 357 70 77 160 29 42 69 61 58 56 53 48 42 42 42 40 35 41 43 30 26 19 20 17 14 3 354 337 300 269 257 258 262 258 263 281 294 302 309 314 319 319 332 342 339
89 242 35 13 82 76 339 61 169 6 65 65 54 47 40 38 39 36 35 30 31 30 28 26 20 15 8 357 350 349 353 343 327 305 281 251 242 243 232 230 265 288 306 302 304 324 334 325 329
0 29 59 105 112 140 139 277 30 60 58 57 48 41 36 31 23 11 15 22 15 9 5 358 356 354 353 352 350 346 339 336 331 320 298 277 267 265 264 268 274 271 267 279 294 309 320 324 328
104 64 92 110 248 117 140 113 6 47 52 47 28 11 358 4 6 2 10 356 350 346 343 341 342 346 338 329 325 322 315 315 320 317 311 303 288 279 267 267 279 290 277 263 295 322 319 322 322